Change the Weather History Date:

Tuesday, March 26, 2013

  Actual Average Record
Temperature  
Mean Temperature 36 °F 44 °F  
Max Temperature 40 °F 53 °F 79 °F (2007)
Min Temperature 31 °F 35 °F 12 °F (2001)
Degree Days  
Heating Degree Days 29 21  
Month to date heating degree days 770 673  
Since 1 July heating degree days 4782 4840  
Cooling Degree Days 0    
Month to date cooling degree days 0  
Year to date cooling degree days 0  
Moisture  
Dew Point 29 °F    
Average Humidity 76    
Maximum Humidity 92    
Minimum Humidity 59    
Precipitation  
Precipitation T in 0.11 in 1.27 in (2002)
Month to date precipitation 1.23 2.55  
Sea Level Pressure  
Sea Level Pressure 29.95 in    
Wind  
Wind Speed 8 mph (WNW)    
Max Wind Speed 18 mph    
Max Gust Speed 26 mph    
Visibility 9 miles    
Events Snow    
T = Trace of Precipitation, MM = Missing Value Source: NWS Daily Summary

Daily Weather History Graph

Daily Weather History Graph

Search for Another Location

Airport or City:

Trip Planner

Search our weather history database for the weather conditions in past years. The results will help you decide how hot, cold, wet, or windy it might be!

Date:

Astronomy

Mar. 26, 2013 Rise Set
Actual Time 7:15 AM EDT 7:41 PM EDT
Civil Twilight 6:48 AM EDT 8:08 PM EDT
Nautical Twilight 6:16 AM EDT 8:40 PM EDT
Astronomical Twilight 5:43 AM EDT 9:13 PM EDT
Moon 7:16 PM EDT (3/26) 6:31 AM EDT (3/26)
Length of Visible Light 13h 19m
Length of Day
12h 25m
Waxing Gibbous, 99% of the Moon is Illuminated
Mar 26
Waxing Gibbous
Mar 27
Full
Apr 3
Last Quarter
Apr 10
New
Apr 18
First Quarter

Hourly Weather History & Observations

Time (EDT) Temp. Windchill Dew Point Humidity Pressure Visibility Wind Dir Wind Speed Gust Speed Precip Events Conditions
12:53 AM 33.1 °F 25.5 °F 30.9 °F 92% 29.80 in 4.0 mi NW 9.2 mph - 0.00 in Snow Light Snow
1:53 AM 32.0 °F 24.8 °F 30.0 °F 92% 29.82 in 4.0 mi NW 8.1 mph - 0.00 in Snow Light Snow
2:29 AM 32.0 °F 23.6 °F 30.2 °F 93% 29.79 in 9.0 mi NW 10.4 mph - 0.00 in   Overcast
2:53 AM 32.0 °F 25.6 °F 30.0 °F 92% 29.84 in 8.0 mi NW 6.9 mph - 0.00 in   Overcast
3:43 AM 32.0 °F 24.8 °F 30.2 °F 93% 29.81 in 10.0 mi NW 8.1 mph - N/A   Overcast
3:53 AM 32.0 °F 24.2 °F 28.9 °F 88% 29.85 in 10.0 mi NW 9.2 mph - N/A   Overcast
4:22 AM 32.0 °F 25.6 °F 28.4 °F 87% 29.82 in 10.0 mi WNW 6.9 mph - N/A   Overcast
4:53 AM 32.0 °F 27.5 °F 28.9 °F 88% 29.87 in 10.0 mi WNW 4.6 mph - N/A   Overcast
5:53 AM 30.9 °F 24.3 °F 28.9 °F 92% 29.88 in 10.0 mi West 6.9 mph - N/A   Overcast
6:53 AM 30.9 °F 25.2 °F 28.9 °F 92% 29.91 in 8.0 mi West 5.8 mph - 0.00 in   Overcast
7:49 AM 30.2 °F 24.3 °F 28.4 °F 93% 29.88 in 5.0 mi West 5.8 mph - N/A   Overcast
7:53 AM 30.9 °F 24.3 °F 28.9 °F 92% 29.93 in 6.0 mi West 6.9 mph - N/A   Overcast
8:30 AM 32.0 °F 24.8 °F 28.4 °F 87% 29.90 in 7.0 mi West 8.1 mph - N/A   Overcast
8:42 AM 32.0 °F 23.6 °F 28.4 °F 87% 29.91 in 6.0 mi West 10.4 mph - N/A   Overcast
8:53 AM 32.0 °F 23.6 °F 28.9 °F 88% 29.96 in 7.0 mi West 10.4 mph - N/A   Overcast
9:40 AM 33.8 °F 27.0 °F 28.4 °F 81% 29.93 in 8.0 mi WNW 8.1 mph - N/A   Overcast
9:53 AM 33.1 °F 26.1 °F 28.9 °F 85% 29.97 in 10.0 mi West 8.1 mph - N/A   Overcast
10:39 AM 33.8 °F 25.8 °F 28.4 °F 81% 29.94 in 10.0 mi WNW 10.4 mph - N/A   Overcast
10:53 AM 34.0 °F 27.2 °F 28.9 °F 82% 29.99 in 10.0 mi NW 8.1 mph - N/A   Overcast
11:53 AM 37.0 °F 30.4 °F 30.0 °F 76% 30.00 in 10.0 mi WNW 9.2 mph - N/A   Overcast
12:14 PM 37.4 °F 30.3 °F 28.4 °F 70% 29.96 in 10.0 mi NW 10.4 mph - N/A   Overcast
12:53 PM 37.9 °F 31.5 °F 28.9 °F 70% 30.00 in 10.0 mi WNW 9.2 mph - N/A   Overcast
1:53 PM 39.0 °F 32.3 °F 28.9 °F 67% 30.00 in 10.0 mi WNW 10.4 mph 21.9 mph N/A   Overcast
2:53 PM 37.9 °F 30.0 °F 28.0 °F 68% 30.01 in 10.0 mi NW 12.7 mph 20.7 mph N/A   Overcast
3:53 PM 37.0 °F 31.0 °F 28.9 °F 73% 30.01 in 10.0 mi NW 8.1 mph - N/A   Overcast
4:53 PM 37.0 °F 28.1 °F 28.0 °F 70% 30.02 in 10.0 mi WNW 15.0 mph 23.0 mph N/A   Overcast
5:32 PM 37.4 °F 29.3 °F 28.4 °F 70% 29.98 in 10.0 mi WNW 12.7 mph - N/A   Overcast
5:53 PM 39.0 °F 32.3 °F 27.0 °F 62% 30.03 in 10.0 mi WNW 10.4 mph - N/A   Overcast
6:53 PM 37.9 °F 30.0 °F 27.0 °F 65% 30.05 in 10.0 mi WNW 12.7 mph 19.6 mph N/A   Overcast
7:53 PM 35.1 °F 29.3 °F 28.0 °F 76% 30.07 in 10.0 mi NW 6.9 mph - N/A   Overcast
8:53 PM 34.0 °F 29.8 °F 28.9 °F 82% 30.09 in 10.0 mi WNW 4.6 mph - N/A   Overcast
9:53 PM 32.0 °F 26.4 °F 28.9 °F 88% 30.11 in 10.0 mi SW 5.8 mph - N/A   Overcast
10:53 PM 33.1 °F 28.7 °F 28.0 °F 82% 30.12 in 10.0 mi West 4.6 mph - N/A   Overcast
11:53 PM 33.1 °F 25.5 °F 27.0 °F 78% 30.12 in 10.0 mi West 9.2 mph - N/A   Scattered Clouds